TimeEST,TemperatureF,Dew PointF,Humidity,Sea Level PressureIn,VisibilityMPH,Wind Direction,Wind SpeedMPH,Gust SpeedMPH,PrecipitationIn,Events,Conditions,WindDirDegrees,DateUTC
12:07 AM,51.8,48.2,88,30.10,5.0,WSW,12.7,-,N/A,,Overcast,250,2012-12-03 05:07:00
12:18 AM,51.8,50.0,94,30.09,2.5,WSW,8.1,-,0.00,Rain,Light Rain,240,2012-12-03 05:18:00
12:27 AM,51.8,51.8,100,30.09,3.0,SW,10.4,-,0.00,Rain,Light Rain,230,2012-12-03 05:27:00
12:56 AM,51.1,50.0,96,30.09,4.0,WSW,8.1,-,0.00,,Overcast,240,2012-12-03 05:56:00
1:36 AM,51.8,51.8,100,30.08,5.0,WSW,6.9,-,N/A,,Overcast,240,2012-12-03 06:36:00
1:56 AM,51.1,50.0,96,30.09,5.0,WSW,11.5,-,N/A,,Overcast,250,2012-12-03 06:56:00
2:35 AM,51.8,51.8,100,30.08,5.0,WSW,9.2,-,N/A,,Overcast,250,2012-12-03 07:35:00
2:56 AM,51.1,48.9,92,30.09,5.0,West,8.1,-,N/A,,Overcast,260,2012-12-03 07:56:00
3:30 AM,51.8,48.2,88,30.09,5.0,West,8.1,-,N/A,,Overcast,260,2012-12-03 08:30:00
3:41 AM,51.8,48.2,88,30.09,5.0,West,5.8,-,N/A,,Overcast,270,2012-12-03 08:41:00
3:56 AM,51.1,48.9,92,30.08,4.0,West,9.2,-,N/A,,Overcast,260,2012-12-03 08:56:00
4:45 AM,51.8,48.2,88,30.09,4.0,West,8.1,-,N/A,,Overcast,280,2012-12-03 09:45:00
4:56 AM,50.0,48.0,93,30.10,4.0,West,11.5,-,N/A,,Overcast,260,2012-12-03 09:56:00
5:28 AM,48.2,46.4,93,30.11,4.0,West,8.1,-,N/A,,Partly Cloudy,280,2012-12-03 10:28:00
5:56 AM,48.0,46.9,96,30.12,3.0,West,5.8,-,N/A,,Clear,260,2012-12-03 10:56:00
6:42 AM,46.4,46.4,100,30.12,2.5,West,4.6,-,N/A,,Clear,260,2012-12-03 11:42:00
6:56 AM,46.9,46.0,97,30.12,1.8,West,4.6,-,N/A,,Clear,270,2012-12-03 11:56:00
7:41 AM,48.2,46.4,93,30.15,1.5,West,5.8,-,N/A,,Partly Cloudy,260,2012-12-03 12:41:00
7:56 AM,48.0,46.9,96,30.15,1.8,West,8.1,-,N/A,,Mostly Cloudy,270,2012-12-03 12:56:00
8:42 AM,48.2,48.2,100,30.16,1.8,WNW,3.5,-,N/A,,Scattered Clouds,300,2012-12-03 13:42:00
8:56 AM,50.0,46.9,89,30.17,2.0,NW,4.6,-,N/A,,Clear,310,2012-12-03 13:56:00
9:06 AM,51.8,46.4,82,30.17,3.0,Calm,Calm,-,N/A,,Clear,0,2012-12-03 14:06:00
9:56 AM,55.9,46.9,72,30.17,3.0,West,9.2,-,N/A,,Haze,280,2012-12-03 14:56:00
10:56 AM,55.9,44.1,64,30.16,7.0,NW,13.8,19.6,N/A,,Clear,310,2012-12-03 15:56:00
11:56 AM,59.0,43.0,55,30.15,9.0,NNW,11.5,-,N/A,,Clear,330,2012-12-03 16:56:00
12:56 PM,59.0,42.1,53,30.15,9.0,WNW,9.2,17.3,N/A,,Clear,300,2012-12-03 17:56:00
1:56 PM,60.1,41.0,49,30.14,10.0,NW,5.8,-,N/A,,Clear,320,2012-12-03 18:56:00
2:56 PM,57.9,41.0,53,30.16,10.0,NNW,4.6,-,N/A,,Clear,340,2012-12-03 19:56:00
3:56 PM,55.0,39.9,57,30.19,10.0,NNW,4.6,-,N/A,,Clear,340,2012-12-03 20:56:00
4:56 PM,48.0,39.9,74,30.20,10.0,NNW,3.5,-,N/A,,Clear,330,2012-12-03 21:56:00
5:56 PM,44.1,39.0,82,30.24,10.0,NW,3.5,-,N/A,,Clear,320,2012-12-03 22:56:00
6:56 PM,42.1,37.0,82,30.25,9.0,Calm,Calm,-,N/A,,Clear,0,2012-12-03 23:56:00
7:56 PM,42.1,37.9,85,30.26,9.0,Calm,Calm,-,N/A,,Clear,0,2012-12-04 00:56:00
8:56 PM,37.9,36.0,93,30.27,8.0,North,4.6,-,N/A,,Clear,10,2012-12-04 01:56:00
9:56 PM,39.0,36.0,89,30.26,8.0,NNE,4.6,-,N/A,,Clear,20,2012-12-04 02:56:00
10:56 PM,37.9,36.0,93,30.28,8.0,Calm,Calm,-,N/A,,Clear,0,2012-12-04 03:56:00
11:56 PM,37.0,35.1,93,30.29,7.0,East,3.5,-,N/A,,Clear,80,2012-12-04 04:56:00